[[{"header":{"parameterUnit":"m.s-1","parameterCategory":1,"la1":30.2991,"la2":30.254,"lo1":-89.0895,"lo2":-89.0444,"dy":0.0017,"dx":0.0017,"nx":28,"ny":28,"refTime":"2024-06-26T09:00:00:Z","depth":0,"parameterNumber":2,"parameterNumberName":"U-component_of_WINDS"},"data":[0,0,0,0,0,0,0,0,0,0,0,0,0,0,0,0,0,0,0,0,0,0,0,0,0,0,0,0,0,0,0,0,0,0,0,0,0,0,0,0,0,0,0,0,0,0,0,0,0,0,0,0,0,0,0,0,0,0,2.5456,2.5457,0,2.548,2.5481,2.5481,2.5413,2.5411,2.5409,2.5407,2.5438,2.544,2.5443,0,0,0,0,0,0,0,0,0,0,0,0,0,2.5358,2.536,2.5456,2.5457,2.5457,2.548,2.5481,2.5481,2.5413,2.5411,2.5408,2.5406,2.5437,2.544,2.5443,0,0,0,0,0,0,0,0,0,0,0,0,0,2.5394,2.5361,2.5456,2.5426,2.5423,2.548,2.5481,2.5481,2.5414,2.5411,2.5408,2.5405,2.5436,2.544,2.5444,2.5533,0,0,2.5456,2.5458,0,0,0,0,0,0,0,0,2.5392,2.5397,2.543,2.5428,2.5425,2.544,2.5457,2.5499,2.5415,2.5418,2.5407,2.5403,2.5441,2.5445,2.5457,2.5534,2.5536,2.5457,2.5459,2.5461,2.5462,0,0,0,0,0,0,0,2.5389,2.5396,2.5466,2.5431,2.5428,2.5413,2.5415,2.5465,2.5447,2.5417,2.5412,2.5416,2.544,2.5453,2.5457,2.5536,2.5457,2.546,2.5463,2.5465,2.5689,2.5693,0,0,0,0,0,0,2.539,2.5394,2.5465,2.5467,2.54,2.5417,2.5419,2.5439,2.5446,2.5444,2.5418,2.5412,2.5447,2.5452,2.5458,2.5563,2.5461,2.5465,2.5467,2.5686,2.569,2.5694,0,0,0,0,0,0,2.5388,2.5397,2.5464,2.5429,2.5436,2.5422,2.5445,2.5441,2.5454,2.5447,2.5444,2.5435,2.5445,2.5452,2.5514,2.5563,2.5467,2.5471,2.5682,2.5687,2.5692,2.5773,0,0,0,0,0,0,2.5385,2.5397,2.5429,2.543,2.5439,2.5519,2.5448,2.5444,2.546,2.5453,2.5462,2.546,2.5443,2.5508,2.5519,2.5567,2.5474,2.5677,2.5684,2.569,2.5766,2.5781,2.5793,0,0,0,0,0,2.5382,2.5452,2.5431,2.544,2.5478,2.5522,2.5527,2.5503,2.5465,2.5498,2.5494,2.546,2.5556,2.5515,2.5526,2.5576,2.5674,2.5682,2.569,2.576,2.5778,2.5793,0,0,0,0,0,0,2.5458,2.5451,2.5428,2.55,2.5512,2.551,2.5551,2.5523,2.5547,2.554,2.5512,2.5515,2.5583,2.5586,2.5541,2.5664,2.5609,2.5619,2.5659,2.5675,2.5688,2.5686,2.5477,0,0,0,0,0,2.5483,2.5517,2.551,2.5574,2.5581,2.5566,2.5584,2.5565,2.5577,2.5582,2.5582,2.5597,2.563,2.5653,2.5684,2.5767,2.5768,2.5807,2.582,2.5831,2.584,2.5885,2.5903,2.5719,2.5719,2.5719,0,0,2.5535,2.5536,2.5559,2.559,2.5596,2.5634,2.557,2.5613,2.5641,2.5589,2.5647,2.5649,2.5663,2.5737,2.5769,2.5742,2.5891,2.5841,2.585,2.5853,2.5895,2.5913,2.5928,2.5725,2.5724,2.5723,0,0,2.5649,2.5653,2.5707,2.5715,2.5725,2.5715,2.5728,2.5731,2.5729,2.5787,2.5749,2.5783,2.5841,2.5853,2.5867,2.5987,2.5957,2.5998,2.6068,2.6112,2.6127,2.6139,2.6182,2.6198,2.6008,2.6008,2.6008,0,2.5713,2.5766,2.5738,2.5783,2.5798,2.5752,2.5807,2.5817,2.5838,2.5851,2.5819,2.5891,2.5898,2.5973,2.6003,2.6015,2.6031,2.5997,2.6126,2.6139,2.615,2.6191,2.6207,2.6013,2.6012,2.6012,2.6011,0,2.5845,2.5882,2.5925,2.5944,2.5965,2.6015,2.5996,2.6021,2.6,2.5994,2.6054,2.6061,2.6092,2.6108,2.609,2.6182,2.6165,2.6131,2.6075,2.6173,2.6211,2.6226,2.602,2.6018,2.6016,2.6015,0,0,2.6006,2.601,2.6026,2.6035,2.6044,2.6073,2.6122,2.6151,2.6172,2.6189,2.623,2.6281,2.6249,2.6265,2.6248,2.6286,2.6382,2.6247,2.6247,2.6272,2.6484,2.651,2.6528,2.6362,2.6365,2.6367,2.6483,0,2.6119,2.62,2.6177,2.6259,2.6294,2.6251,2.6294,2.6306,2.6301,2.6332,2.6328,2.6364,2.6319,2.6328,2.6365,2.6362,2.6424,2.6354,2.6402,2.6404,2.6398,2.6548,2.6575,2.6684,2.6498,2.65,2.6502,0,2.626,2.628,2.6366,2.6369,2.6383,2.6422,2.6446,2.6476,2.6489,2.6483,2.6501,2.6476,2.6526,2.6471,2.654,2.6493,2.6512,2.6514,2.6518,2.6521,2.6458,2.6556,2.6718,2.6735,2.6525,2.6523,2.6522,0,2.637,2.6419,2.6476,2.6485,2.649,2.6519,2.6523,2.6532,2.6551,2.6574,2.6586,2.6615,2.6631,2.6655,2.664,2.66,2.6713,2.6655,2.671,2.6711,2.6735,2.6734,2.6904,2.6748,2.6748,2.6748,2.6747,0,2.6497,2.6551,2.6525,2.6561,2.6621,2.6595,2.6656,2.6655,2.6664,2.67,2.6665,2.67,2.6678,2.6712,2.67,2.676,2.6768,2.6766,2.6762,2.6769,2.6769,2.678,2.6772,2.6752,2.6751,2.675,2.6749,0,2.6629,2.6614,2.6674,2.6674,2.6675,2.672,2.6721,2.6754,2.6747,2.6793,2.6803,2.6793,2.6831,2.6818,2.6859,2.6852,2.6928,2.6915,2.6923,2.6919,2.6975,2.697,2.7158,2.7181,2.7011,2.7013,2.7014,0,2.6711,2.6752,2.6756,2.6777,2.6782,2.6817,2.6835,2.6812,2.6834,2.6852,2.6884,2.6918,2.6945,2.7008,2.7006,2.7038,2.7025,2.7088,2.7029,2.7035,2.7026,2.7023,2.7028,2.71,2.7102,2.7104,2.7105,0,2.6859,2.6849,2.6876,2.6902,2.6925,2.6944,2.696,2.698,2.6958,2.6984,2.7021,2.7042,2.7083,2.7119,2.7147,2.7154,2.7127,2.7123,2.7138,2.7145,2.7148,2.7147,2.6955,2.7119,2.7118,2.7117,2.7116,2.7115,2.6968,2.7002,2.7011,2.7042,2.7052,2.7068,2.71,2.7096,2.7126,2.7157,2.7142,2.7186,2.72,2.7235,2.7245,2.7281,2.7256,2.7277,2.7283,2.7288,2.7295,2.7142,2.7286,2.7286,2.7285,2.7285,2.7285,0,2.7114,2.7117,2.7147,2.717,2.7195,2.7166,2.7183,2.7206,2.7244,2.7258,2.7284,2.7328,2.7363,2.7363,2.7396,2.7424,2.7412,2.7433,2.7431,2.7433,2.7315,2.7299,2.7442,2.7442,2.7442,2.7442,2.7442,2.7442,2.7193,2.7249,2.724,2.7301,2.7305,2.7345,2.7358,2.7373,2.7384,2.7433,2.7461,2.746,2.7469,2.7502,2.7533,2.7533,2.7546,2.7572,2.7567,2.7457,2.7441,2.7426,2.7411,2.7575,2.7575,2.7682,2.7683,2.7684]},{"header":{"parameterUnit":"m.s-1","parameterCategory":1,"la1":30.2991,"la2":30.254,"lo1":-89.0895,"lo2":-89.0444,"dy":0.0017,"dx":0.0017,"nx":28,"ny":28,"refTime":"2024-06-26T09:00:00:Z","depth":0,"parameterNumber":3,"parameterNumberName":"V-component_of_WINDS"},"data":[0,0,0,0,0,0,0,0,0,0,0,0,0,0,0,0,0,0,0,0,0,0,0,0,0,0,0,0,0,0,0,0,0,0,0,0,0,0,0,0,0,0,0,0,0,0,0,0,0,0,0,0,0,0,0,0,0,0,1.8046,1.8048,0,1.8214,1.8216,1.8217,1.8241,1.824,1.8238,1.8237,1.8404,1.8409,1.8415,0,0,0,0,0,0,0,0,0,0,0,0,0,1.7742,1.7747,1.8046,1.8048,1.805,1.8213,1.8216,1.8218,1.8242,1.824,1.8238,1.8236,1.8402,1.8409,1.8416,0,0,0,0,0,0,0,0,0,0,0,0,0,1.7888,1.7749,1.8046,1.8082,1.8087,1.8213,1.8216,1.8219,1.8242,1.824,1.8237,1.8235,1.8399,1.8408,1.8417,1.8517,0,0,1.8443,1.8447,0,0,0,0,0,0,0,0,1.788,1.7899,1.8075,1.808,1.8085,1.8204,1.817,1.8318,1.8243,1.8183,1.8237,1.8234,1.8339,1.8352,1.8389,1.8525,1.8532,1.8444,1.845,1.8453,1.8456,0,0,0,0,0,0,0,1.7869,1.7892,1.8112,1.8077,1.8084,1.8088,1.8106,1.8198,1.8272,1.8188,1.819,1.821,1.8341,1.838,1.8393,1.8534,1.8444,1.8452,1.8457,1.8461,1.8759,1.8761,0,0,0,0,0,0,1.7853,1.7883,1.8107,1.8117,1.7975,1.8095,1.8116,1.8168,1.8271,1.8284,1.8212,1.821,1.8366,1.8383,1.8399,1.8522,1.8453,1.8462,1.8467,1.8756,1.8759,1.8762,0,0,0,0,0,0,1.7847,1.7873,1.81,1.8001,1.803,1.8103,1.8162,1.8173,1.8212,1.8289,1.8301,1.8238,1.8365,1.8386,1.8487,1.8528,1.8466,1.8474,1.8753,1.8757,1.8761,1.877,0,0,0,0,0,0,1.7838,1.7871,1.7911,1.8002,1.8036,1.8188,1.8165,1.8178,1.8228,1.8227,1.8317,1.8329,1.8365,1.8474,1.8496,1.8539,1.848,1.875,1.8755,1.8759,1.8766,1.8773,1.878,0,0,0,0,0,1.7827,1.7906,1.7913,1.794,1.8088,1.819,1.8209,1.825,1.8231,1.8271,1.832,1.8327,1.852,1.8484,1.8509,1.8555,1.8747,1.8753,1.8759,1.8763,1.8772,1.878,0,0,0,0,0,0,1.7817,1.7919,1.7927,1.8039,1.8106,1.8194,1.8246,1.8258,1.8331,1.8327,1.8373,1.8393,1.8491,1.8533,1.8492,1.8657,1.8632,1.8643,1.8626,1.8635,1.8642,1.863,1.8488,0,0,0,0,0,1.7828,1.7904,1.7988,1.8078,1.8111,1.8173,1.8219,1.8244,1.8315,1.8343,1.8399,1.8466,1.8542,1.8591,1.8665,1.8772,1.8791,1.8816,1.8823,1.8828,1.8837,1.8895,1.8907,1.8782,1.8782,1.8781,0,0,1.785,1.7915,1.7961,1.8077,1.8132,1.8209,1.8196,1.8278,1.8334,1.8355,1.8454,1.8497,1.8575,1.8679,1.8727,1.8717,1.8876,1.8836,1.8839,1.8846,1.8903,1.8914,1.8925,1.8786,1.8785,1.8784,0,0,1.7931,1.7988,1.8069,1.8125,1.8208,1.8249,1.8268,1.8354,1.8384,1.8485,1.8501,1.8568,1.8698,1.8752,1.8797,1.8896,1.8905,1.8919,1.8955,1.9011,1.9021,1.903,1.9064,1.9076,1.8928,1.8928,1.8928,0,1.7948,1.8066,1.8109,1.819,1.824,1.8263,1.8344,1.8395,1.8498,1.8531,1.8518,1.8681,1.8735,1.8851,1.8875,1.8911,1.8933,1.8909,1.9016,1.9026,1.9034,1.9068,1.9081,1.8929,1.8929,1.8929,1.8928,0,1.8082,1.8163,1.8218,1.8318,1.8374,1.8455,1.8508,1.8559,1.8579,1.862,1.8721,1.8786,1.8873,1.8903,1.8923,1.9022,1.9012,1.9007,1.8983,1.9047,1.9079,1.9092,1.893,1.893,1.893,1.8929,0,0,1.8161,1.8284,1.8304,1.8349,1.8442,1.8505,1.8585,1.8672,1.8714,1.8784,1.8851,1.896,1.8956,1.9006,1.9032,1.9082,1.9155,1.907,1.9073,1.9083,1.9266,1.9269,1.9284,1.9161,1.9164,1.9166,1.9259,0,1.8252,1.8399,1.8439,1.8562,1.8636,1.8659,1.8729,1.8792,1.8832,1.89,1.8943,1.9019,1.9008,1.9038,1.9088,1.9135,1.9192,1.9129,1.9222,1.9225,1.9202,1.9301,1.9304,1.939,1.9272,1.9274,1.9276,0,1.8378,1.8452,1.8583,1.8666,1.8698,1.8761,1.8843,1.8907,1.8979,1.9004,1.906,1.9082,1.9164,1.9135,1.9248,1.9205,1.9245,1.9274,1.9278,1.9288,1.9254,1.9312,1.9418,1.9431,1.9296,1.9295,1.9293,0,1.8422,1.8553,1.8649,1.8687,1.8786,1.8829,1.8872,1.8942,1.8991,1.9062,1.9094,1.9173,1.9216,1.9275,1.9316,1.9292,1.9425,1.94,1.9447,1.9446,1.9475,1.9472,1.9588,1.9501,1.9501,1.9501,1.95,0,1.8519,1.8598,1.8669,1.8728,1.8816,1.8861,1.8946,1.899,1.9052,1.9117,1.9141,1.9201,1.9252,1.9319,1.9352,1.944,1.9459,1.948,1.9488,1.9478,1.9476,1.9505,1.95,1.9504,1.9503,1.9503,1.9502,0,1.8583,1.8634,1.8739,1.8825,1.8848,1.8909,1.8982,1.9038,1.9079,1.9161,1.9183,1.9246,1.9326,1.9373,1.9473,1.9495,1.9592,1.9597,1.9568,1.9572,1.9616,1.9611,1.9754,1.9775,1.9675,1.9676,1.9676,0,1.8641,1.8702,1.8795,1.8842,1.8886,1.896,1.9011,1.9056,1.9107,1.9193,1.9239,1.9321,1.9389,1.9515,1.9568,1.9644,1.9651,1.9696,1.9663,1.9651,1.9651,1.9647,1.9652,1.9702,1.9702,1.9703,1.9704,0,1.8739,1.8761,1.8834,1.8916,1.8976,1.9041,1.9107,1.9143,1.9199,1.9255,1.9338,1.9391,1.9493,1.9574,1.9654,1.9696,1.9709,1.9714,1.9729,1.9719,1.97,1.971,1.9583,1.971,1.971,1.9709,1.9709,1.9709,1.8801,1.8857,1.8931,1.901,1.9065,1.9125,1.9182,1.923,1.9301,1.9389,1.9411,1.9498,1.9566,1.9676,1.972,1.9787,1.9779,1.9801,1.9807,1.9811,1.9812,1.9689,1.9802,1.9802,1.9802,1.9802,1.9801,0,1.89,1.8948,1.9022,1.9113,1.9175,1.9184,1.9256,1.9307,1.9384,1.9447,1.9514,1.9608,1.9686,1.9745,1.9824,1.9866,1.9873,1.9885,1.9882,1.9891,1.9815,1.9794,1.9877,1.9877,1.9877,1.9877,1.9877,1.9877,1.8958,1.9052,1.9083,1.9203,1.9251,1.9337,1.9378,1.9433,1.9484,1.9589,1.9654,1.9693,1.9754,1.9837,1.9908,1.9923,1.9951,1.9961,1.9977,1.9905,1.9897,1.9889,1.9869,1.9967,1.9967,2.0048,2.0049,2.0049]}]]